When you browse on this site, cookies collect data to enhance your experience and personalize the content and advertising you see.
Visit our Privacy Policy to learn more. By continuing to use the site, you agree to this use of cookies and data.
  • In United Kingdom
  • List of Countries
  • For 7 days
  • Water Temperature
  • Weather Map
  • Weather Widgets
  • user-avatar
    Login

    Hourly Weather Maun

    Today, 19 January, Sunday

    Time Temperature Precipitation Wind Pressure Humidity
    00:00 +27°C° 0 mm 1 mps 677 mmHg 59%
    01:00 +26°C° 0 mm 1 mps 677 mmHg 63%
    02:00 +26°C° 0 mm 1 mps 677 mmHg 61%
    03:00 +25°C° 0.2 mm 1 mps 676 mmHg 65%
    04:00 +25°C° 0.2 mm 1 mps 676 mmHg 69%
    05:00 +24°C° 0.2 mm 1 mps 676 mmHg 73%
    06:00 +25°C° 0 mm 1 mps 676 mmHg 68%
    07:00 +27°C° 0 mm 1 mps 677 mmHg 64%
    08:00 +28°C° 0 mm 1 mps 678 mmHg 60%
    09:00 +31°C° 0 mm 1 mps 678 mmHg 52%
    10:00 +34°C° 0 mm 2 mps 678 mmHg 44%
    11:00 +36°C° 0 mm 2 mps 678 mmHg 37%
    12:00 +36°C° 0 mm 2 mps 678 mmHg 34%
    13:00 +37°C° 0 mm 2 mps 677 mmHg 31%
    14:00 +37°C° 0 mm 2 mps 677 mmHg 28%
    15:00 +37°C° 0 mm 2 mps 677 mmHg 28%
    16:00 +37°C° 0 mm 2 mps 676 mmHg 28%
    17:00 +37°C° 0 mm 2 mps 676 mmHg 28%
    18:00 +36°C° 0 mm 2 mps 676 mmHg 31%
    19:00 +34°C° 0 mm 2 mps 676 mmHg 34%
    20:00 +31°C° 0 mm 2 mps 676 mmHg 37%
    21:00 +31°C° 0 mm 2 mps 677 mmHg 37%
    22:00 +31°C° 0 mm 1 mps 677 mmHg 37%
    23:00 +31°C° 0 mm 1 mps 678 mmHg 37%

    Tomorrow, 20 January, Monday

    Time Temperature Precipitation Wind Pressure Humidity
    00:00 +30°C° 0 mm 1 mps 678 mmHg 39%
    01:00 +30°C° 0 mm 1 mps 678 mmHg 40%
    02:00 +29°C° 0 mm 2 mps 678 mmHg 42%
    03:00 +28°C° 0 mm 2 mps 678 mmHg 45%
    04:00 +27°C° 0 mm 2 mps 677 mmHg 47%
    05:00 +27°C° 0 mm 2 mps 677 mmHg 50%
    06:00 +27°C° 0 mm 3 mps 678 mmHg 54%
    07:00 +27°C° 0 mm 4 mps 679 mmHg 58%
    08:00 +28°C° 0 mm 5 mps 680 mmHg 62%
    09:00 +30°C° 0 mm 5 mps 680 mmHg 55%
    10:00 +33°C° 0 mm 4 mps 680 mmHg 49%
    11:00 +35°C° 0 mm 3 mps 681 mmHg 42%
    12:00 +35°C° 0 mm 3 mps 680 mmHg 39%
    13:00 +36°C° 0 mm 3 mps 679 mmHg 36%
    14:00 +37°C° 0 mm 3 mps 679 mmHg 32%
    15:00 +37°C° 0 mm 2 mps 679 mmHg 32%
    16:00 +37°C° 0 mm 2 mps 678 mmHg 31%
    17:00 +37°C° 0 mm 2 mps 678 mmHg 30%
    18:00 +35°C° 0 mm 3 mps 678 mmHg 33%
    19:00 +34°C° 0 mm 3 mps 678 mmHg 37%
    20:00 +31°C° 0 mm 3 mps 678 mmHg 40%
    21:00 +30°C° 0 mm 4 mps 679 mmHg 45%
    22:00 +29°C° 0 mm 4 mps 680 mmHg 49%
    23:00 +28°C° 0 mm 5 mps 680 mmHg 54%

    Day after tomorrow, 21 January, Tuesday

    Time Temperature Precipitation Wind Pressure Humidity
    00:00 +27°C° 0 mm 4 mps 680 mmHg 57%
    01:00 +26°C° 0 mm 4 mps 680 mmHg 60%
    02:00 +25°C° 0 mm 3 mps 680 mmHg 64%
    03:00 +24°C° 0 mm 3 mps 680 mmHg 65%
    04:00 +24°C° 0 mm 3 mps 680 mmHg 67%
    05:00 +22°C° 0 mm 4 mps 680 mmHg 69%
    06:00 +23°C° 0 mm 4 mps 680 mmHg 68%
    07:00 +23°C° 0 mm 4 mps 681 mmHg 66%
    08:00 +23°C° 0 mm 4 mps 681 mmHg 64%
    09:00 +27°C° 0 mm 3 mps 681 mmHg 58%
    10:00 +29°C° 0 mm 2 mps 682 mmHg 51%
    11:00 +31°C° 0 mm 2 mps 682 mmHg 44%
    12:00 +34°C° 0 mm 2 mps 682 mmHg 39%
    13:00 +36°C° 0 mm 2 mps 681 mmHg 34%
    14:00 +37°C° 0 mm 2 mps 681 mmHg 30%
    15:00 +37°C° 0 mm 2 mps 680 mmHg 29%
    16:00 +36°C° 0 mm 2 mps 679 mmHg 29%
    17:00 +36°C° 0 mm 2 mps 678 mmHg 29%
    18:00 +34°C° 0 mm 2 mps 678 mmHg 32%
    19:00 +32°C° 0 mm 2 mps 678 mmHg 34%
    20:00 +31°C° 0 mm 2 mps 678 mmHg 37%
    21:00 +29°C° 0 mm 2 mps 679 mmHg 39%
    22:00 +28°C° 0 mm 2 mps 679 mmHg 42%
    23:00 +27°C° 0 mm 2 mps 679 mmHg 45%

    22 January, Wednesday

    Time Temperature Precipitation Wind Pressure Humidity
    00:00 +26°C° 0 mm 2 mps 679 mmHg 46%
    01:00 +26°C° 0 mm 2 mps 679 mmHg 47%
    02:00 +25°C° 0 mm 1 mps 678 mmHg 48%
    03:00 +25°C° 0 mm 1 mps 678 mmHg 52%
    04:00 +24°C° 0 mm 1 mps 678 mmHg 55%
    05:00 +23°C° 0 mm 1 mps 678 mmHg 59%
    06:00 +24°C° 0 mm 2 mps 679 mmHg 59%
    07:00 +26°C° 0 mm 2 mps 679 mmHg 58%
    08:00 +27°C° 0 mm 3 mps 680 mmHg 58%
    09:00 +29°C° 0 mm 3 mps 680 mmHg 50%
    10:00 +31°C° 0 mm 3 mps 680 mmHg 42%
    11:00 +35°C° 0 mm 3 mps 681 mmHg 34%
    12:00 +36°C° 0 mm 2 mps 680 mmHg 31%
    13:00 +37°C° 0 mm 2 mps 680 mmHg 28%
    14:00 +37°C° 0 mm 1 mps 679 mmHg 25%
    15:00 +37°C° 0 mm 1 mps 678 mmHg 26%
    16:00 +36°C° 0 mm 1 mps 678 mmHg 27%
    17:00 +35°C° 0 mm 1 mps 677 mmHg 27%
    18:00 +34°C° 0 mm 1 mps 677 mmHg 31%
    19:00 +32°C° 0 mm 1 mps 677 mmHg 34%
    20:00 +30°C° 0 mm 1 mps 677 mmHg 37%
    21:00 +30°C° 0 mm 1 mps 677 mmHg 37%
    22:00 +29°C° 0 mm 1 mps 678 mmHg 37%
    23:00 +28°C° 0 mm 2 mps 678 mmHg 37%

    23 January, Thursday

    Time Temperature Precipitation Wind Pressure Humidity
    00:00 +28°C° 0 mm 2 mps 677 mmHg 38%
    01:00 +27°C° 0 mm 2 mps 677 mmHg 38%
    02:00 +26°C° 0 mm 2 mps 677 mmHg 39%
    03:00 +26°C° 0 mm 2 mps 677 mmHg 42%
    04:00 +27°C° 0 mm 3 mps 677 mmHg 44%
    05:00 +27°C° 0 mm 3 mps 677 mmHg 47%
    06:00 +27°C° 0 mm 3 mps 678 mmHg 47%
    07:00 +28°C° 0 mm 3 mps 678 mmHg 48%
    08:00 +28°C° 0 mm 2 mps 678 mmHg 49%
    09:00 +30°C° 0 mm 3 mps 679 mmHg 42%
    10:00 +34°C° 0 mm 3 mps 679 mmHg 36%
    11:00 +36°C° 0 mm 4 mps 680 mmHg 29%
    12:00 +37°C° 0 mm 3 mps 679 mmHg 27%
    13:00 +38°C° 0 mm 2 mps 679 mmHg 24%
    14:00 +39°C° 0 mm 2 mps 678 mmHg 22%
    15:00 +38°C° 0 mm 2 mps 677 mmHg 25%
    16:00 +36°C° 0 mm 1 mps 677 mmHg 27%
    17:00 +34°C° 0 mm 1 mps 676 mmHg 30%
    18:00 +33°C° 0 mm 1 mps 676 mmHg 36%
    19:00 +31°C° 0 mm 1 mps 676 mmHg 41%
    20:00 +29°C° 0 mm 1 mps 677 mmHg 47%
    21:00 +29°C° 0 mm 2 mps 677 mmHg 48%
    22:00 +29°C° 0 mm 2 mps 678 mmHg 48%
    23:00 +28°C° 0 mm 2 mps 678 mmHg 48%

    24 January, Friday

    Time Temperature Precipitation Wind Pressure Humidity
    00:00 +28°C° 0.1 mm 2 mps 678 mmHg 49%
    01:00 +28°C° 0.1 mm 2 mps 678 mmHg 50%
    02:00 +28°C° 0.1 mm 2 mps 678 mmHg 51%
    03:00 +27°C° 0.2 mm 2 mps 678 mmHg 56%
    04:00 +26°C° 0.2 mm 3 mps 677 mmHg 61%
    05:00 +25°C° 0.2 mm 3 mps 677 mmHg 66%
    06:00 +26°C° 0 mm 3 mps 678 mmHg 65%
    07:00 +26°C° 0 mm 4 mps 679 mmHg 64%
    08:00 +27°C° 0 mm 4 mps 679 mmHg 63%
    09:00 +28°C° 0 mm 4 mps 679 mmHg 59%
    10:00 +29°C° 0 mm 4 mps 679 mmHg 56%
    11:00 +30°C° 0 mm 3 mps 680 mmHg 52%
    12:00 +30°C° 0 mm 3 mps 679 mmHg 50%
    13:00 +31°C° 0 mm 2 mps 679 mmHg 47%
    14:00 +32°C° 0 mm 2 mps 678 mmHg 44%
    15:00 +34°C° 0 mm 2 mps 678 mmHg 40%
    16:00 +34°C° 0 mm 2 mps 678 mmHg 37%
    17:00 +35°C° 0 mm 2 mps 678 mmHg 33%
    18:00 +32°C° 0.3 mm 2 mps 678 mmHg 43%
    19:00 +29°C° 0.3 mm 2 mps 678 mmHg 53%
    20:00 +26°C° 0.3 mm 2 mps 678 mmHg 64%
    21:00 +25°C° 0.9 mm 2 mps 678 mmHg 70%
    22:00 +24°C° 0.9 mm 2 mps 679 mmHg 77%
    23:00 +23°C° 0.9 mm 2 mps 679 mmHg 84%
    Show more